| time (UTC) | temp F | wind direction | speed MPH | gust MPH | rain 1hr in | rain 24hr in | rain mn in | humidity % | barometer mb |
| 20260510180756 | 66 | 357 | 0.0 | 1.0 | 0.00 | 0.00 | 0.00 | 35 | 1023.8 |
| 20260510180254 | 66 | 357 | 0.0 | 1.0 | 0.00 | 0.00 | 0.00 | 35 | 1023.8 |
| 20260510175750 | 66 | 0 | 0.0 | 2.0 | 0.00 | 0.00 | 0.00 | 36 | 1023.9 |
| 20260510175245 | 67 | 352 | 3.0 | 3.0 | 0.00 | 0.00 | 0.00 | 35 | 1023.9 |
| 20260510174743 | 67 | 356 | 1.0 | 2.0 | 0.00 | 0.00 | 0.00 | 38 | 1023.5 |
| 20260510174240 | 66 | 34 | 0.0 | 1.0 | 0.00 | 0.00 | 0.00 | 39 | 1023.4 |
| 20260510173736 | 67 | 348 | 2.0 | 3.0 | 0.00 | 0.00 | 0.00 | 35 | 1023.5 |
| 20260510173232 | 68 | 354 | 1.0 | 2.0 | 0.00 | 0.00 | 0.00 | 37 | 1023.8 |
| 20260510172728 | 67 | 352 | 0.0 | 3.0 | 0.00 | 0.00 | 0.00 | 36 | 1023.6 |
| 20260510172224 | 67 | 354 | 1.0 | 2.0 | 0.00 | 0.00 | 0.00 | 34 | 1023.5 |
| 20260510171721 | 67 | 357 | 1.0 | 2.0 | 0.00 | 0.00 | 0.00 | 37 | 1023.6 |
| 20260510171218 | 66 | 38 | 1.0 | 3.0 | 0.00 | 0.00 | 0.00 | 36 | 1023.4 |
| 20260510170715 | 68 | 345 | 1.0 | 7.0 | 0.00 | 0.00 | 0.00 | 33 | 1023.5 |
| 20260510170211 | 67 | 351 | 1.0 | 9.0 | 0.00 | 0.00 | 0.00 | 36 | 1023.5 |
| 20260510165707 | 65 | 319 | 2.0 | 6.0 | 0.00 | 0.00 | 0.00 | 40 | 1023.6 |
| 20260510165203 | 65 | 27 | 2.0 | 3.0 | 0.00 | 0.00 | 0.00 | 38 | 1023.4 |
| 20260510164701 | 64 | 288 | 0.0 | 2.0 | 0.00 | 0.00 | 0.00 | 37 | 1023.6 |
| 20260510164158 | 64 | 358 | 4.0 | 8.0 | 0.00 | 0.00 | 0.00 | 38 | 1023.4 |
| 20260510163653 | 66 | 149 | 1.0 | 4.0 | 0.00 | 0.00 | 0.00 | 42 | 1023.2 |
| 20260510163149 | 68 | 11 | 1.0 | 6.0 | 0.00 | 0.00 | 0.00 | 38 | 1023.3 |
| 20260510162643 | 65 | 351 | 0.0 | 2.0 | 0.00 | 0.00 | 0.00 | 43 | 1023.2 |
| 20260510162141 | 64 | 351 | 1.0 | 3.0 | 0.00 | 0.00 | 0.00 | 43 | 1023.0 |
| 20260510161636 | 66 | 337 | 3.0 | 8.0 | 0.00 | 0.00 | 0.00 | 36 | 1023.2 |
| 20260510161133 | 64 | 132 | 2.0 | 8.0 | 0.00 | 0.00 | 0.00 | 40 | 1023.3 |
| 20260510160630 | 63 | 356 | 4.0 | 6.0 | 0.00 | 0.00 | 0.00 | 36 | 1023.3 |
| 20260510160130 | 64 | 332 | 4.0 | 9.0 | 0.00 | 0.00 | 0.00 | 37 | 1023.3 |
| 20260510155627 | 63 | 349 | 2.0 | 6.0 | 0.00 | 0.00 | 0.00 | 39 | 1023.3 |
| 20260510155123 | 64 | 230 | 3.0 | 6.0 | 0.00 | 0.00 | 0.00 | 37 | 1023.2 |
| 20260510154618 | 64 | 353 | 2.0 | 6.0 | 0.00 | 0.00 | 0.00 | 37 | 1023.1 |
| 20260510154114 | 64 | 104 | 1.0 | 4.0 | 0.00 | 0.00 | 0.00 | 38 | 1023.2 |
| 20260510153610 | 65 | 348 | 1.0 | 3.0 | 0.00 | 0.00 | 0.00 | 38 | 1023.1 |
| 20260510153106 | 64 | 4 | 1.0 | 3.0 | 0.00 | 0.00 | 0.00 | 43 | 1023.0 |
| 20260510152603 | 63 | 67 | 5.0 | 11.0 | 0.00 | 0.00 | 0.00 | 37 | 1023.1 |
| 20260510152059 | 63 | 22 | 1.0 | 2.0 | 0.00 | 0.00 | 0.00 | 46 | 1023.0 |
| 20260510151556 | 62 | 350 | 2.0 | 6.0 | 0.00 | 0.00 | 0.00 | 42 | 1023.0 |
| 20260510151054 | 62 | 281 | 1.0 | 9.0 | 0.00 | 0.00 | 0.00 | 40 | 1022.7 |
| 20260510150553 | 62 | 341 | 5.0 | 8.0 | 0.00 | 0.00 | 0.00 | 38 | 1022.9 |
| 20260510150049 | 60 | 51 | 2.0 | 6.0 | 0.00 | 0.00 | 0.00 | 41 | 1022.7 |
| 20260510145546 | 59 | 350 | 2.0 | 6.0 | 0.00 | 0.00 | 0.00 | 40 | 1022.6 |
| 20260510145043 | 59 | 6 | 3.0 | 6.0 | 0.00 | 0.00 | 0.00 | 41 | 1022.6 |
| 20260510144539 | 59 | 21 | 3.0 | 6.0 | 0.00 | 0.00 | 0.00 | 41 | 1022.9 |
| 20260510144036 | 59 | 5 | 2.0 | 2.0 | 0.00 | 0.00 | 0.00 | 43 | 1022.9 |
| 20260510143531 | 59 | 13 | 1.0 | 6.0 | 0.00 | 0.00 | 0.00 | 43 | 1022.9 |
| 20260510143028 | 59 | 357 | 1.0 | 3.0 | 0.00 | 0.00 | 0.00 | 44 | 1022.8 |
| 20260510142524 | 59 | 330 | 5.0 | 6.0 | 0.00 | 0.00 | 0.00 | 41 | 1022.9 |
| 20260510142021 | 58 | 357 | 2.0 | 7.0 | 0.00 | 0.00 | 0.00 | 42 | 1022.9 |
| 20260510141517 | 58 | 329 | 2.0 | 4.0 | 0.00 | 0.00 | 0.00 | 41 | 1023.0 |
| 20260510141015 | 59 | 3 | 4.0 | 9.0 | 0.00 | 0.00 | 0.00 | 42 | 1023.0 |
| 20260510140511 | 59 | 314 | 1.0 | 4.0 | 0.00 | 0.00 | 0.00 | 44 | 1023.1 |
| 20260510140006 | 60 | 0 | 5.0 | 6.0 | 0.00 | 0.00 | 0.00 | 41 | 1022.9 |
| 20260510135501 | 59 | 50 | 1.0 | 4.0 | 0.00 | 0.00 | 0.00 | 42 | 1022.8 |
| 20260510134958 | 59 | 358 | 0.0 | 3.0 | 0.00 | 0.00 | 0.00 | 43 | 1022.6 |
| 20260510134456 | 58 | 352 | 0.0 | 2.0 | 0.00 | 0.00 | 0.00 | 48 | 1022.7 |
| 20260510133952 | 57 | 349 | 0.0 | 2.0 | 0.00 | 0.00 | 0.00 | 44 | 1022.5 |
| 20260510133448 | 57 | 350 | 1.0 | 6.0 | 0.00 | 0.00 | 0.00 | 43 | 1022.6 |
| 20260510132944 | 57 | 357 | 1.0 | 4.0 | 0.00 | 0.00 | 0.00 | 45 | 1022.3 |
| 20260510132442 | 57 | 359 | 2.0 | 4.0 | 0.00 | 0.00 | 0.00 | 44 | 1022.5 |
| 20260510131938 | 56 | 327 | 1.0 | 1.0 | 0.00 | 0.00 | 0.00 | 47 | 1022.4 |
| 20260510131436 | 56 | 349 | 1.0 | 1.0 | 0.00 | 0.00 | 0.00 | 44 | 1022.4 |
| 20260510130932 | 57 | 346 | 2.0 | 6.0 | 0.00 | 0.00 | 0.00 | 43 | 1022.3 |
| 20260510130429 | 57 | 4 | 4.0 | 6.0 | 0.00 | 0.00 | 0.00 | 43 | 1022.2 |
| 20260510125927 | 56 | 351 | 0.0 | 7.0 | 0.00 | 0.00 | 0.00 | 45 | 1022.1 |
| 20260510125422 | 56 | 322 | 0.0 | 2.0 | 0.00 | 0.00 | 0.00 | 48 | 1022.1 |
| 20260510124920 | 56 | 321 | 0.0 | 2.0 | 0.00 | 0.00 | 0.00 | 45 | 1022.0 |
| 20260510124416 | 56 | 344 | 0.0 | 2.0 | 0.00 | 0.00 | 0.00 | 45 | 1021.8 |
| 20260510123912 | 56 | 348 | 0.0 | 6.0 | 0.00 | 0.00 | 0.00 | 44 | 1021.6 |
| 20260510123408 | 56 | 351 | 3.0 | 6.0 | 0.00 | 0.00 | 0.00 | 43 | 1021.6 |
| 20260510122905 | 56 | 351 | 2.0 | 6.0 | 0.00 | 0.00 | 0.00 | 44 | 1021.1 |
| 20260510122359 | 56 | 0 | 0.0 | 3.0 | 0.00 | 0.00 | 0.00 | 46 | 1021.2 |
| 20260510121856 | 57 | 352 | 0.0 | 1.0 | 0.00 | 0.00 | 0.00 | 46 | 1021.4 |
| 20260510121354 | 57 | 349 | 2.0 | 3.0 | 0.00 | 0.00 | 0.00 | 44 | 1020.8 |
| 20260510120851 | 56 | 353 | 1.0 | 3.0 | 0.00 | 0.00 | 0.00 | 44 | 1020.5 |
| 20260510120348 | 56 | 336 | 2.0 | 3.0 | 0.00 | 0.00 | 0.00 | 44 | 1020.6 |
| 20260510115849 | 56 | 31 | 1.0 | 2.0 | 0.00 | 0.00 | 0.00 | 45 | 1020.6 |
| 20260510115346 | 56 | 1 | 4.0 | 7.0 | 0.00 | 0.00 | 0.00 | 43 | 1020.3 |
| 20260510114841 | 56 | 23 | 3.0 | 6.0 | 0.00 | 0.00 | 0.00 | 43 | 1020.1 |
| 20260510114339 | 57 | 347 | 1.0 | 7.0 | 0.00 | 0.00 | 0.00 | 44 | 1020.0 |
| 20260510113839 | 56 | 0 | 2.0 | 8.0 | 0.00 | 0.00 | 0.00 | 43 | 1020.3 |
| 20260510113336 | 56 | 359 | 0.0 | 2.0 | 0.00 | 0.00 | 0.00 | 44 | 1020.2 |
| 20260510112832 | 57 | 56 | 1.0 | 1.0 | 0.00 | 0.00 | 0.00 | 45 | 1020.0 |
| 20260510112329 | 57 | 33 | 1.0 | 7.0 | 0.00 | 0.00 | 0.00 | 44 | 1019.7 |
| 20260510111825 | 57 | 296 | 4.0 | 7.0 | 0.00 | 0.00 | 0.00 | 43 | 1019.7 |
| 20260510111322 | 57 | 110 | 1.0 | 2.0 | 0.00 | 0.00 | 0.00 | 44 | 1019.8 |
| 20260510110817 | 57 | 309 | 0.0 | 4.0 | 0.00 | 0.00 | 0.00 | 44 | 1019.7 |
| 20260510110315 | 57 | 5 | 1.0 | 3.0 | 0.00 | 0.00 | 0.00 | 45 | 1019.5 |
| 20260510105809 | 57 | 345 | 5.0 | 7.0 | 0.00 | 0.00 | 0.00 | 43 | 1019.8 |
| 20260510105306 | 58 | 351 | 1.0 | 4.0 | 0.00 | 0.00 | 0.00 | 42 | 1019.7 |
| 20260510104801 | 58 | 348 | 0.0 | 3.0 | 0.00 | 0.00 | 0.00 | 43 | 1019.4 |
| 20260510104259 | 58 | 338 | 1.0 | 4.0 | 0.00 | 0.00 | 0.00 | 43 | 1019.6 |
| 20260510103754 | 58 | 356 | 1.0 | 7.0 | 0.00 | 0.00 | 0.00 | 42 | 1019.4 |
| 20260510103251 | 58 | 350 | 1.0 | 4.0 | 0.00 | 0.00 | 0.00 | 43 | 1019.3 |
| 20260510102752 | 58 | 352 | 2.0 | 4.0 | 0.00 | 0.00 | 0.00 | 45 | 1019.4 |
| 20260510102248 | 58 | 351 | 1.0 | 7.0 | 0.00 | 0.00 | 0.00 | 43 | 1019.3 |
| 20260510101746 | 58 | 329 | 2.0 | 4.0 | 0.00 | 0.00 | 0.00 | 45 | 1019.3 |
| 20260510101244 | 58 | 11 | 1.0 | 1.0 | 0.00 | 0.00 | 0.00 | 46 | 1019.1 |
| 20260510100740 | 58 | 318 | 1.0 | 4.0 | 0.00 | 0.00 | 0.00 | 46 | 1018.9 |
| 20260510100238 | 58 | 339 | 2.0 | 3.0 | 0.00 | 0.00 | 0.00 | 45 | 1018.8 |
| 20260510095733 | 59 | 107 | 2.0 | 7.0 | 0.00 | 0.00 | 0.00 | 45 | 1018.4 |
| 20260510095229 | 59 | 342 | 2.0 | 4.0 | 0.00 | 0.00 | 0.00 | 46 | 1018.6 |
| 20260510094727 | 59 | 357 | 1.0 | 6.0 | 0.00 | 0.00 | 0.00 | 46 | 1018.7 |
| 20260510094223 | 59 | 353 | 1.0 | 4.0 | 0.00 | 0.00 | 0.00 | 46 | 1018.6 |
| 20260510093719 | 60 | 349 | 0.0 | 3.0 | 0.00 | 0.00 | 0.00 | 47 | 1018.6 |
| 20260510093217 | 59 | 352 | 0.0 | 10.0 | 0.00 | 0.00 | 0.00 | 46 | 1018.7 |
| 20260510092713 | 59 | 314 | 1.0 | 3.0 | 0.00 | 0.00 | 0.00 | 47 | 1018.6 |
| 20260510092209 | 60 | 349 | 1.0 | 2.0 | 0.00 | 0.00 | 0.00 | 47 | 1018.5 |
| 20260510091704 | 60 | 336 | 1.0 | 7.0 | 0.00 | 0.00 | 0.00 | 45 | 1018.7 |
| 20260510091201 | 60 | 4 | 2.0 | 3.0 | 0.00 | 0.00 | 0.00 | 46 | 1018.5 |
| 20260510090657 | 60 | 319 | 2.0 | 4.0 | 0.00 | 0.00 | 0.00 | 45 | 1018.4 |
| 20260510090154 | 61 | 13 | 2.0 | 7.0 | 0.00 | 0.00 | 0.00 | 46 | 1018.2 |
| 20260510085649 | 61 | 9 | 4.0 | 11.0 | 0.00 | 0.00 | 0.00 | 47 | 1017.9 |
| 20260510085144 | 61 | 347 | 0.0 | 3.0 | 0.00 | 0.00 | 0.00 | 51 | 1017.9 |
| 20260510084641 | 61 | 358 | 2.0 | 4.0 | 0.00 | 0.00 | 0.00 | 51 | 1017.8 |
| 20260510084137 | 61 | 322 | 2.0 | 3.0 | 0.00 | 0.00 | 0.00 | 53 | 1017.6 |
| 20260510083634 | 62 | 323 | 0.0 | 2.0 | 0.00 | 0.00 | 0.00 | 53 | 1017.7 |
| 20260510083131 | 62 | 10 | 4.0 | 6.0 | 0.00 | 0.00 | 0.00 | 53 | 1017.7 |
| 20260510082627 | 62 | 2 | 1.0 | 4.0 | 0.00 | 0.00 | 0.00 | 55 | 1017.7 |
| 20260510082123 | 61 | 358 | 3.0 | 3.0 | 0.00 | 0.00 | 0.00 | 57 | 1017.5 |
| 20260510081623 | 61 | 345 | 0.0 | 2.0 | 0.00 | 0.00 | 0.00 | 59 | 1017.6 |
| 20260510081119 | 62 | 2 | 0.0 | 1.0 | 0.00 | 0.00 | 0.00 | 57 | 1017.5 |
| 20260510080614 | 62 | 326 | 0.0 | 2.0 | 0.00 | 0.00 | 0.00 | 55 | 1017.4 |
| 20260510080110 | 62 | 3 | 1.0 | 1.0 | 0.00 | 0.00 | 0.00 | 56 | 1017.3 |
| 20260510075602 | 62 | 358 | 0.0 | 2.0 | 0.00 | 0.00 | 0.00 | 57 | 1017.4 |
| 20260510075059 | 62 | 353 | 0.0 | 3.0 | 0.00 | 0.00 | 0.00 | 57 | 1017.4 |
| 20260510074556 | 62 | 355 | 0.0 | 2.0 | 0.00 | 0.00 | 0.00 | 60 | 1017.3 |
| 20260510074051 | 61 | 350 | 0.0 | 0.0 | 0.00 | 0.00 | 0.00 | 62 | 1017.3 |
| 20260510073548 | 60 | 350 | 0.0 | 1.0 | 0.00 | 0.00 | 0.00 | 66 | 1017.1 |
| 20260510073045 | 59 | 342 | 0.0 | 0.0 | 0.00 | 0.00 | 0.00 | 68 | 1017.0 |
| 20260510072542 | 59 | 352 | 0.0 | 0.0 | 0.00 | 0.00 | 0.00 | 69 | 1016.9 |
| 20260510072037 | 59 | 354 | 0.0 | 0.0 | 0.00 | 0.00 | 0.00 | 68 | 1016.9 |
| 20260510071533 | 59 | 351 | 0.0 | 0.0 | 0.00 | 0.00 | 0.00 | 66 | 1017.0 |
| 20260510071032 | 59 | 354 | 0.0 | 0.0 | 0.00 | 0.00 | 0.00 | 65 | 1016.8 |
| 20260510070528 | 60 | 352 | 0.0 | 0.0 | 0.00 | 0.00 | 0.00 | 65 | 1016.8 |
| 20260510070025 | 60 | 352 | 0.0 | 0.0 | 0.00 | 0.00 | 0.00 | 64 | 1016.9 |
| 20260510065521 | 61 | 349 | 0.0 | 0.0 | 0.00 | 0.00 | 0.00 | 62 | 1016.7 |
| 20260510065017 | 61 | 353 | 0.0 | 0.0 | 0.00 | 0.00 | 0.00 | 63 | 1016.9 |
| 20260510064515 | 62 | 352 | 0.0 | 1.0 | 0.00 | 0.00 | 0.00 | 61 | 1016.8 |
| 20260510064011 | 62 | 350 | 0.0 | 0.0 | 0.00 | 0.00 | 0.00 | 61 | 1016.5 |
| 20260510063508 | 62 | 352 | 0.0 | 0.0 | 0.00 | 0.00 | 0.00 | 59 | 1016.3 |
| 20260510063006 | 63 | 349 | 0.0 | 0.0 | 0.00 | 0.00 | 0.00 | 58 | 1016.3 |
| 20260510062501 | 63 | 353 | 0.0 | 1.0 | 0.00 | 0.00 | 0.00 | 57 | 1016.1 |
| 20260510061956 | 63 | 353 | 0.0 | 0.0 | 0.00 | 0.00 | 0.00 | 57 | 1016.2 |
| 20260510061453 | 64 | 354 | 0.0 | 0.0 | 0.00 | 0.00 | 0.00 | 59 | 1016.3 |
| 20260510060949 | 64 | 353 | 0.0 | 0.0 | 0.00 | 0.00 | 0.00 | 58 | 1016.4 |
| 20260510060446 | 64 | 338 | 0.0 | 0.0 | 0.00 | 0.00 | 0.00 | 57 | 1016.4 |
| 20260510055942 | 64 | 352 | 2.0 | 3.0 | 0.00 | 0.00 | 0.00 | 53 | 1016.5 |
| 20260510055438 | 64 | 354 | 0.0 | 0.0 | 0.00 | 0.00 | 0.00 | 56 | 1016.6 |
| 20260510054937 | 65 | 349 | 0.0 | 2.0 | 0.00 | 0.00 | 0.00 | 55 | 1016.4 |
| 20260510054432 | 65 | 359 | 0.0 | 0.0 | 0.00 | 0.00 | 0.00 | 55 | 1016.5 |
| 20260510053927 | 65 | 355 | 1.0 | 2.0 | 0.00 | 0.00 | 0.00 | 55 | 1016.3 |
| 20260510053422 | 66 | 351 | 0.0 | 0.0 | 0.00 | 0.00 | 0.00 | 55 | 1016.3 |
| 20260510052919 | 66 | 348 | 0.0 | 1.0 | 0.00 | 0.00 | 0.00 | 54 | 1016.1 |
| 20260510052415 | 67 | 353 | 0.0 | 1.0 | 0.00 | 0.00 | 0.00 | 52 | 1015.9 |
| 20260510051911 | 67 | 344 | 2.0 | 4.0 | 0.00 | 0.00 | 0.00 | 50 | 1016.2 |
| 20260510051408 | 67 | 352 | 0.0 | 1.0 | 0.00 | 0.00 | 0.00 | 52 | 1016.0 |
| 20260510050904 | 67 | 346 | 1.0 | 2.0 | 0.00 | 0.00 | 0.00 | 51 | 1016.1 |
| 20260510050401 | 68 | 0 | 0.0 | 0.0 | 0.00 | 0.00 | 0.00 | 53 | 1015.9 |
| 20260510045858 | 68 | 350 | 0.0 | 1.0 | 0.00 | 0.00 | 0.00 | 52 | 1015.8 |
| 20260510045355 | 68 | 345 | 0.0 | 4.0 | 0.00 | 0.00 | 0.00 | 53 | 1015.5 |
| 20260510044852 | 68 | 14 | 1.0 | 7.0 | 0.00 | 0.00 | 0.00 | 53 | 1014.8 |
| 20260510044349 | 68 | 185 | 1.0 | 4.0 | 0.00 | 0.00 | 0.00 | 55 | 1014.8 |
| 20260510043845 | 68 | 352 | 0.0 | 1.0 | 0.00 | 0.00 | 0.00 | 56 | 1014.6 |
| 20260510043341 | 68 | 351 | 1.0 | 2.0 | 0.00 | 0.00 | 0.00 | 55 | 1014.2 |
| 20260510042839 | 67 | 347 | 1.0 | 3.0 | 0.00 | 0.00 | 0.00 | 55 | 1014.2 |
| 20260510042335 | 67 | 358 | 1.0 | 6.0 | 0.00 | 0.00 | 0.00 | 55 | 1014.4 |
| 20260510041831 | 66 | 354 | 0.0 | 0.0 | 0.00 | 0.00 | 0.00 | 60 | 1014.1 |
| 20260510041329 | 66 | 351 | 0.0 | 0.0 | 0.00 | 0.00 | 0.00 | 62 | 1014.0 |
| 20260510040826 | 66 | 353 | 0.0 | 0.0 | 0.00 | 0.00 | 0.00 | 62 | 1013.8 |
| 20260510040323 | 66 | 356 | 0.0 | 0.0 | 0.00 | 0.00 | 0.00 | 61 | 1013.8 |
| 20260510035818 | 66 | 351 | 0.0 | 0.0 | 0.00 | 0.00 | 0.00 | 60 | 1013.8 |
| 20260510035314 | 66 | 352 | 0.0 | 0.0 | 0.00 | 0.00 | 0.00 | 61 | 1013.9 |
| 20260510034810 | 66 | 349 | 0.0 | 0.0 | 0.00 | 0.00 | 0.00 | 64 | 1013.7 |
| 20260510034308 | 67 | 350 | 0.0 | 0.0 | 0.00 | 0.00 | 0.00 | 63 | 1013.7 |
| 20260510033804 | 67 | 347 | 0.0 | 0.0 | 0.00 | 0.00 | 0.00 | 59 | 1013.8 |
| 20260510033301 | 67 | 350 | 0.0 | 0.0 | 0.00 | 0.00 | 0.00 | 58 | 1013.9 |
| 20260510032758 | 67 | 349 | 0.0 | 0.0 | 0.00 | 0.00 | 0.00 | 59 | 1013.7 |
| 20260510032254 | 67 | 352 | 0.0 | 0.0 | 0.00 | 0.00 | 0.00 | 57 | 1013.7 |
| 20260510031750 | 67 | 354 | 0.0 | 0.0 | 0.00 | 0.00 | 0.00 | 58 | 1013.9 |
| 20260510031245 | 67 | 355 | 1.0 | 1.0 | 0.00 | 0.00 | 0.00 | 60 | 1013.7 |
| 20260510030745 | 67 | 352 | 0.0 | 0.0 | 0.00 | 0.00 | 0.00 | 60 | 1013.8 |
| 20260510030242 | 68 | 352 | 0.0 | 0.0 | 0.00 | 0.00 | 0.00 | 57 | 1013.6 |
| 20260510025739 | 68 | 349 | 0.0 | 0.0 | 0.00 | 0.00 | 0.00 | 56 | 1013.6 |
| 20260510025237 | 67 | 354 | 0.0 | 0.0 | 0.00 | 0.00 | 0.00 | 57 | 1013.5 |
| 20260510024734 | 67 | 354 | 0.0 | 1.0 | 0.00 | 0.00 | 0.00 | 58 | 1013.9 |
| 20260510024230 | 68 | 349 | 0.0 | 0.0 | 0.00 | 0.00 | 0.00 | 57 | 1013.7 |
| 20260510023726 | 68 | 347 | 0.0 | 0.0 | 0.00 | 0.00 | 0.00 | 56 | 1013.2 |
| 20260510023223 | 68 | 347 | 0.0 | 0.0 | 0.00 | 0.00 | 0.00 | 56 | 1012.9 |
| 20260510022719 | 68 | 347 | 0.0 | 0.0 | 0.00 | 0.00 | 0.00 | 54 | 1012.8 |
| 20260510022219 | 69 | 345 | 0.0 | 0.0 | 0.00 | 0.00 | 0.00 | 53 | 1012.6 |
| 20260510021714 | 68 | 347 | 0.0 | 0.0 | 0.00 | 0.00 | 0.00 | 53 | 1012.5 |
| 20260510021212 | 68 | 348 | 0.0 | 0.0 | 0.00 | 0.00 | 0.00 | 54 | 1012.6 |
| 20260510020707 | 69 | 350 | 0.0 | 1.0 | 0.00 | 0.00 | 0.00 | 52 | 1012.5 |
| 20260510020202 | 69 | 351 | 0.0 | 1.0 | 0.00 | 0.00 | 0.00 | 53 | 1012.5 |
| 20260510015658 | 70 | 348 | 0.0 | 2.0 | 0.00 | 0.00 | 0.00 | 52 | 1012.4 |
| 20260510015155 | 71 | 352 | 1.0 | 2.0 | 0.00 | 0.00 | 0.00 | 50 | 1012.3 |
| 20260510014655 | 71 | 334 | 1.0 | 2.0 | 0.00 | 0.00 | 0.00 | 51 | 1012.3 |
| 20260510014154 | 71 | 359 | 1.0 | 1.0 | 0.00 | 0.00 | 0.00 | 50 | 1012.2 |
| 20260510013654 | 71 | 331 | 0.0 | 1.0 | 0.00 | 0.00 | 0.00 | 49 | 1012.2 |
| 20260510013150 | 71 | 347 | 0.0 | 1.0 | 0.00 | 0.00 | 0.00 | 51 | 1012.0 |
| 20260510012649 | 69 | 351 | 0.0 | 1.0 | 0.00 | 0.00 | 0.00 | 51 | 1012.0 |
| 20260510012145 | 70 | 348 | 0.0 | 0.0 | 0.00 | 0.00 | 0.00 | 52 | 1011.9 |
| 20260510011640 | 70 | 349 | 0.0 | 0.0 | 0.00 | 0.00 | 0.00 | 53 | 1011.8 |
| 20260510011136 | 71 | 352 | 0.0 | 1.0 | 0.00 | 0.00 | 0.00 | 52 | 1011.8 |
| 20260510010632 | 71 | 350 | 0.0 | 1.0 | 0.00 | 0.00 | 0.00 | 50 | 1011.6 |
| 20260510010130 | 72 | 13 | 0.0 | 0.0 | 0.00 | 0.00 | 0.00 | 50 | 1011.6 |
| 20260510005625 | 72 | 11 | 1.0 | 2.0 | 0.00 | 0.00 | 0.00 | 50 | 1011.5 |
| 20260510005123 | 73 | 18 | 2.0 | 2.0 | 0.00 | 0.00 | 0.00 | 50 | 1011.3 |
| 20260510004621 | 73 | 348 | 0.0 | 1.0 | 0.00 | 0.00 | 0.00 | 49 | 1011.5 |
| 20260510004119 | 74 | 350 | 0.0 | 2.0 | 0.00 | 0.00 | 0.00 | 47 | 1011.2 |
| 20260510003616 | 74 | 203 | 1.0 | 3.0 | 0.00 | 0.00 | 0.00 | 47 | 1011.2 |
| 20260510003112 | 74 | 2 | 0.0 | 1.0 | 0.00 | 0.00 | 0.00 | 47 | 1011.0 |
| 20260510002612 | 75 | 302 | 1.0 | 2.0 | 0.00 | 0.00 | 0.00 | 48 | 1010.7 |
| 20260510002109 | 75 | 7 | 1.0 | 2.0 | 0.00 | 0.00 | 0.00 | 45 | 1010.8 |
| 20260510001606 | 75 | 356 | 0.0 | 1.0 | 0.00 | 0.00 | 0.00 | 45 | 1010.6 |
| 20260510001105 | 75 | 343 | 0.0 | 3.0 | 0.00 | 0.00 | 0.00 | 45 | 1010.5 |
| 20260510000605 | 75 | 351 | 0.0 | 2.0 | 0.00 | 0.00 | 0.00 | 44 | 1010.6 |
| 20260509235558 | 76 | 342 | 0.0 | 1.0 | 0.00 | 0.00 | 0.00 | 44 | 1010.6 |
| 20260509235055 | 77 | 338 | 0.0 | 11.0 | 0.00 | 0.00 | 0.00 | 43 | 1010.6 |
| 20260509234551 | 76 | 342 | 1.0 | 6.0 | 0.00 | 0.00 | 0.00 | 44 | 1010.5 |
| 20260509234049 | 76 | 23 | 0.0 | 0.0 | 0.00 | 0.00 | 0.00 | 46 | 1010.4 |
| 20260509233546 | 76 | 353 | 0.0 | 0.0 | 0.00 | 0.00 | 0.00 | 50 | 1010.2 |
| 20260509233044 | 77 | 352 | 0.0 | 1.0 | 0.00 | 0.00 | 0.00 | 47 | 1010.1 |
| 20260509232540 | 77 | 351 | 0.0 | 1.0 | 0.00 | 0.00 | 0.00 | 46 | 1010.1 |
| 20260509232037 | 78 | 348 | 0.0 | 0.0 | 0.00 | 0.00 | 0.00 | 46 | 1010.1 |
| 20260509231533 | 78 | 351 | 0.0 | 0.0 | 0.00 | 0.00 | 0.00 | 43 | 1010.1 |
| 20260509231031 | 79 | 352 | 1.0 | 1.0 | 0.00 | 0.00 | 0.00 | 42 | 1010.1 |